This is the latest recevied weather packets stored in our database for station/object N3AVN. If no packets are shown the sender has not sent any weather packets the latest 10 day(s).
| Time | Temp. | Humidity | Pressure | Rain* | Wind** | Luminosity | Snow |
|---|---|---|---|---|---|---|---|
| 1777201671 | 6.11° C | 97% | 1017.8 hPa | 0 mm | - | 27 W/m² | - |
| 1777201367 | 6.11° C | 97% | 1017.6 hPa | 0 mm | - | 29 W/m² | - |
| 1777201062 | 6.11° C | 97% | 1017.8 hPa | 0 mm | - | 22 W/m² | - |
| 1777200759 | 6.11° C | 97% | 1017.8 hPa | 0 mm | - | 12 W/m² | - |
| 1777200459 | 5.56° C | 97% | 1017.7 hPa | 0 mm | - | 12 W/m² | - |
| 1777200156 | 5.56° C | 97% | 1017.5 hPa | 0 mm | - | 7 W/m² | - |
| 1777199853 | 5.56° C | 97% | 1017.6 hPa | 0 mm | - | 4 W/m² | - |
| 1777199553 | 5.56° C | 97% | 1017.7 hPa | 0 mm | - | 4 W/m² | - |
| 1777199252 | 5.56° C | 97% | 1017.7 hPa | 0 mm | - | 2 W/m² | - |
| 1777198947 | 5.56° C | 97% | 1017.4 hPa | 0 mm | - | 2 W/m² | - |
| 1777198644 | 5.56° C | 97% | 1017.8 hPa | 0 mm | - | 0 W/m² | - |
| 1777198342 | 5° C | 97% | 1017.5 hPa | 0 mm | - | 0 W/m² | - |
| 1777198038 | 5.56° C | 97% | 1017.3 hPa | 0 mm | - | 0 W/m² | - |
| 1777197733 | 5.56° C | 97% | 1017.2 hPa | 0 mm | - | 0 W/m² | - |
| 1777197428 | 5.56° C | 97% | 1017.1 hPa | 0 mm | - | 0 W/m² | - |
| 1777197126 | 5.56° C | 97% | 1017.1 hPa | 0 mm | - | 0 W/m² | - |
| 1777196821 | 5.56° C | 97% | 1017.2 hPa | 0 mm | - | 0 W/m² | - |
| 1777196517 | 5.56° C | 97% | 1017 hPa | 0 mm | - | 0 W/m² | - |
| 1777196215 | 5.56° C | 97% | 1017.2 hPa | 0 mm | - | 0 W/m² | - |
| 1777195912 | 5.56° C | 97% | 1017.3 hPa | 0 mm | - | 0 W/m² | - |
| 1777195611 | 5.56° C | 97% | 1017.3 hPa | 0 mm | - | 0 W/m² | - |
| 1777195308 | 5.56° C | 97% | 1017.4 hPa | 0 mm | - | 0 W/m² | - |
| 1777195004 | 5.56° C | 97% | 1017.4 hPa | 0 mm | - | 0 W/m² | - |
| 1777194698 | 5.56° C | 97% | 1017.1 hPa | 0 mm | - | 0 W/m² | - |
| 1777194396 | 5.56° C | 97% | 1017.1 hPa | 0 mm | - | 0 W/m² | - |
* Rain latest hour (hover to see other rain measurements)
** Current wind speed in m/s (hover to see current wind gust speed)